Temperature
12 11 11 11 11 11 11 11 11 11 11 11 12 12 12 12 12 13 13 13 13 13 14 14 14 14 14 15 15 14 14 14 14 15 15 15 15 15 16 16 16 16 15
12 11 11 11 11 11 11 11 11 11 11 11 11 12 12 12 12 12 12 13 13 13 13 13 14 14 14 14 14 14 14 14 14 14 14 15 15 15 15 15 15 15 15
12 11 11 11 11 10 10 10 10 10 11 11 11 11 11 12 12 12 12 12 12 13 13 13 13 14 14 14 14 14 14 14 14 14 14 14 14 14 14 14 14 14 14
12 12 11 11 10 10 10 10 10 10 10 10 10 10 11 11 11 12 12 12 12 12 13 13 13 13 13 13 14 14 14 14 14 14 14 14 14 14 14 14 14 14 14
12 12 11 11 10 10 10 10 10 10 10 10 10 10 10 11 11 11 11 12 12 12 12 13 13 13 13 13 13 13 13 14 13 13 13 13 13 14 14 14 14 13 13
12 12 11 11 10 10 10 10 10 9 10 10 10 10 10 10 10 10 11 11 12 12 12 12 12 13 13 13 13 13 13 13 13 13 13 13 13 13 14 13 13 13 13
12 12 11 11 10 10 10 10 9 9 9 9 9 10 10 10 10 10 10 11 11 11 12 12 12 12 12 13 13 13 13 13 13 13 13 13 14 14 14 13 13 13 13
12 12 11 10 10 10 10 10 9 9 9 9 9 9 10 10 10 10 10 10 11 11 11 12 12 12 12 12 12 12 13 13 13 13 13 13 13 13 13 13 13 13 12
12 12 11 11 10 10 10 10 10 9 9 9 9 9 9 10 10 10 10 10 10 11 11 11 11 12 12 12 12 12 12 12 12 12 13 13 13 13 13 13 13 12 12
13 12 11 11 10 10 10 10 10 9 9 9 9 9 9 9 10 10 10 10 10 10 11 11 11 11 12 12 12 12 12 12 12 12 12 12 12 12 12 13 13 13 12
13 12 12 11 11 10 10 10 10 10 10 10 9 9 9 10 9 9 9 10 10 10 11 11 11 11 12 12 12 12 12 12 12 12 12 12 12 12 12 12 12 13 13
13 13 12 12 11 11 10 10 10 10 10 10 10 10 10 10 9 9 9 10 10 10 10 11 11 11 12 12 12 12 12 12 12 12 12 12 12 12 12 12 12 12 12
14 13 13 12 12 11 11 10 10 10 10 10 10 10 10 10 10 9 9 10 10 10 10 11 11 11 11 12 12 12 12 12 12 12 12 12 12 12 12 11 11 11 11
15 14 13 13 12 12 11 11 10 10 10 10 10 10 10 10 10 10 10 10 10 10 10 11 11 11 11 11 12 12 12 12 12 12 12 11 11 11 11 11 11 11 11
15 15 14 13 13 12 12 11 11 11 10 10 10 10 10 10 10 10 10 10 10 10 10 11 11 11 11 11 11 12 12 12 11 11 11 11 11 11 11 11 11 11 11
16 15 15 14 13 13 12 12 11 11 11 10 10 10 10 10 10 10 10 10 10 10 10 11 11 11 11 11 12 12 12 11 11 11 11 11 11 11 11 11 11 11 11
16 16 15 15 14 13 13 12 12 11 11 11 11 11 10 10 10 10 10 10 10 10 10 10 11 11 11 11 11 11 11 11 11 11 11 11 11 11 11 11 11 11 11
16 16 16 15 15 14 13 13 12 12 12 11 11 11 11 11 10 10 10 10 10 11 11 11 11 11 11 11 11 11 11 11 11 11 11 11 11 11 11 11 10 10 10
17 16 16 16 15 14 14 13 12 12 12 12 11 11 11 11 11 10 10 10 10 11 11 11 11 11 11 11 11 11 11 11 11 11 11 11 11 10 10 10 10 10 10
17 17 16 16 15 15 14 14 13 13 12 12 12 12 11 11 11 11 11 11 11 11 11 11 11 11 11 11 11 11 11 11 11 11 11 11 10 10 10 10 10 10 10
17 16 16 16 16 15 15 14 14 13 13 12 12 12 12 11 11 11 11 11 11 11 11 11 11 11 11 11 11 11 11 11 11 11 11 10 10 10 10 10 10 9 9
16 16 16 16 16 16 15 15 14 14 13 13 12 12 12 12 12 11 11 11 11 11 11 11 11 11 11 11 11 11 11 11 11 11 10 10 10 10 9 9 9 9 9
15 16 16 16 15 15 15 15 15 14 14 13 13 12 12 12 12 12 12 12 12 11 11 11 11 11 11 11 11 11 11 11 11 10 10 10 10 10 9 9 9 9 9
14 14 15 15 15 15 15 15 15 14 14 14 13 13 13 12 12 12 12 12 12 12 11 11 11 11 11 11 11 11 11 11 10 10 10 10 10 9 9 9 9 9 8
12 12 13 13 14 14 14 14 15 15 14 14 14 13 13 13 12 12 12 12 12 12 12 12 12 12 11 11 11 11 11 11 10 10 10 10 10 9 9 9 9 8 8
10 10 11 11 11 12 12 13 13 14 14 14 14 14 13 13 13 13 12 12 12 12 12 12 12 12 12 12 12 11 11 11 11 10 10 10 10 9 9 9 9 8 8
Wind_Speed
5 5 6 6 6 6 6 7 7 7 8 8 8 8 8 8 7 6 4 4 3 3 3 5 6 6 6 7 6 7 6 6 5 3 2 3 5 6 7 9 10 11 13
4 4 5 5 6 6 7 7 7 8 8 8 8 8 8 8 8 7 6 5 4 3 3 3 4 5 6 6 7 8 7 6 6 6 4 4 4 6 7 7 7 9 10
3 3 5 5 6 6 6 7 7 8 8 8 8 9 9 8 8 7 6 5 4 4 3 2 2 3 5 4 6 7 6 6 5 5 5 3 3 4 6 6 7 6 8
2 2 4 5 5 5 6 6 7 7 7 8 8 8 8 8 7 7 7 6 5 4 3 1 1 2 4 4 5 6 6 6 6 6 5 5 4 5 7 7 7 5 6
2 2 3 4 4 5 5 6 6 7 7 7 8 8 9 7 7 8 7 6 6 5 4 3 1 2 4 4 4 5 6 6 6 6 6 5 6 7 7 6 7 7 5
2 2 3 3 4 5 5 6 6 7 7 7 8 8 9 8 12 12 8 6 6 5 5 4 2 1 1 2 4 6 7 7 7 6 5 7 7 7 7 8 8 8 5
2 2 2 3 4 5 5 6 6 6 6 6 7 7 8 10 14 13 11 6 6 5 5 4 3 3 4 3 3 3 4 5 6 6 7 7 8 9 10 10 9 7 5
2 3 3 3 4 5 5 6 5 4 5 5 6 7 7 10 15 14 11 7 5 6 5 4 3 3 2 3 3 4 4 3 3 3 5 5 6 8 9 8 10 9 8
4 4 4 3 4 4 5 5 4 4 4 4 4 6 7 9 13 13 10 5 5 6 6 5 4 3 2 3 4 4 4 3 4 5 5 7 10 13 13 11 11 11 7
6 5 4 4 4 4 5 4 3 3 4 5 4 5 6 7 12 13 11 4 5 5 5 5 6 4 3 3 4 4 4 3 4 5 6 7 9 12 14 11 11 12 8
6 5 4 4 4 5 4 3 3 4 4 4 5 5 5 7 10 12 11 5 4 4 4 4 4 6 5 4 4 3 4 4 4 5 6 6 6 7 7 6 7 9 8
5 5 6 5 5 3 3 3 3 3 4 5 5 6 5 6 7 9 11 9 6 3 3 3 4 5 6 6 4 5 7 6 5 5 5 5 6 6 6 7 8 8 6
6 7 7 6 5 4 3 3 2 2 2 3 4 4 5 5 6 10 11 10 9 3 2 4 4 6 6 6 7 7 6 5 5 5 5 4 4 6 7 7 9 11 12
8 8 7 6 6 5 4 3 3 3 3 3 3 4 4 5 4 5 6 6 7 4 3 3 5 7 6 6 6 5 4 4 5 5 5 4 5 6 6 6 7 8 7
8 8 7 7 7 6 5 5 5 5 5 4 3 3 3 4 5 8 6 5 4 3 2 2 3 3 4 4 4 4 4 4 5 4 5 6 6 6 5 5 5 4 4
8 8 7 6 6 6 5 5 8 9 9 10 9 7 5 7 8 9 8 7 6 2 2 2 2 2 2 2 3 3 3 4 4 5 5 5 6 6 5 4 4 5 6
10 9 7 6 6 6 6 6 6 5 8 10 11 11 9 8 8 7 6 5 4 2 2 0 0 1 1 1 2 2 2 2 3 5 5 5 6 6 5 5 5 6 6
11 11 9 7 7 7 7 7 6 5 5 5 6 10 11 9 8 6 5 2 2 2 1 1 1 1 1 1 2 2 3 3 3 4 5 5 5 5 5 5 5 6 6
10 9 9 8 7 7 7 6 6 7 6 6 4 4 7 8 7 6 3 2 2 2 2 2 2 2 2 2 3 3 3 3 4 4 4 5 5 5 5 5 5 8 5
10 14 12 8 7 7 7 7 7 7 7 6 7 6 3 4 4 4 4 4 4 4 4 4 4 4 3 3 4 4 4 4 4 4 4 5 5 5 6 7 6 6 4
8 10 14 9 8 9 8 9 9 8 8 8 8 8 10 7 7 7 6 6 6 6 6 5 5 4 4 4 4 5 6 5 5 5 5 5 5 5 5 5 6 5 5
7 8 8 9 9 9 9 9 8 8 9 10 8 7 12 7 7 7 7 8 7 7 6 6 6 5 6 6 6 6 6 6 6 6 6 6 6 5 5 5 6 5 5
8 8 8 9 9 11 11 9 9 9 10 10 9 7 7 8 9 9 9 9 8 7 7 7 7 6 6 5 6 7 7 8 7 8 8 7 6 6 6 6 7 6 6
10 9 9 9 8 9 10 10 10 11 11 10 10 9 9 9 10 10 10 9 8 8 8 8 8 10 10 8 8 10 10 10 10 9 10 9 8 7 6 6 7 7 6
12 10 9 8 8 9 10 10 10 11 11 11 10 10 9 10 10 10 10 9 10 10 11 10 8 9 12 12 11 12 14 15 14 12 10 8 9 9 8 7 6 6 6
14 13 11 9 8 8 9 10 11 11 11 11 11 11 10 11 11 10 10 9 10 10 10 10 11 13 13 14 17 18 18 18 18 16 13 8 9 8 8 7 8 7 7
Wind_Direction
324 329 337 338 341 346 351 347 344 343 346 349 346 344 344 344 341 339 325 328 307 269 238 218 212 201 198 195 189 189 191 187 194 177 170 166 169 171 168 170 173 175 180
312 325 332 335 342 348 347 344 344 345 344 345 345 347 346 345 343 344 338 333 325 310 279 232 216 202 196 196 193 193 193 190 184 176 172 171 171 172 163 162 162 166 161
305 326 334 337 340 339 337 340 345 346 346 348 350 349 345 340 338 339 339 339 332 321 301 263 236 198 191 195 188 186 186 186 178 167 168 160 146 152 152 152 151 142 151
288 321 328 328 328 326 330 339 343 345 347 348 346 343 341 337 339 342 345 345 345 340 326 296 222 194 190 187 186 187 179 175 174 171 164 157 148 150 156 155 149 138 139
251 294 309 317 326 332 338 341 341 345 348 343 347 348 346 344 348 350 347 354 353 355 356 357 346 205 199 194 190 184 175 175 174 176 169 160 157 161 164 154 147 136 122
232 266 297 319 331 336 336 338 342 343 343 348 351 349 350 351 349 2 3 357 357 3 1 358 360 21 135 160 176 183 179 178 179 177 173 172 166 158 150 152 147 145 141
232 265 288 309 321 326 332 339 339 337 341 345 346 349 347 342 355 6 9 10 10 8 5 5 21 34 39 62 77 109 155 167 175 174 173 172 167 164 158 159 155 142 130
236 265 276 291 307 319 331 332 328 327 334 335 338 344 346 349 0 6 10 12 14 11 6 15 30 25 37 75 80 77 84 94 136 157 167 166 160 156 156 148 137 117 105
240 256 262 266 290 310 319 319 319 324 330 331 331 345 349 345 356 4 12 2 13 10 5 15 20 24 49 95 106 102 87 72 82 110 125 136 141 145 143 138 140 140 134
238 243 250 250 265 284 298 306 312 316 316 327 337 346 347 342 351 4 12 7 7 2 1 9 16 24 41 84 117 123 119 107 107 107 110 124 133 144 148 152 152 150 141
232 236 245 247 254 263 289 304 316 325 335 342 341 338 344 346 348 0 9 9 357 354 356 355 358 20 46 76 104 118 134 129 120 120 120 125 129 134 135 131 139 149 145
218 230 243 249 254 255 271 299 321 336 339 341 341 338 338 340 346 354 5 10 4 356 346 340 349 23 52 74 90 104 111 111 111 114 117 123 130 130 124 116 105 91 89
214 230 240 248 248 246 248 273 297 319 325 326 333 331 328 334 341 356 2 3 2 1 341 350 18 44 56 65 78 92 94 97 107 111 111 103 102 114 116 109 97 92 86
219 231 234 238 249 245 237 232 236 257 273 295 309 314 319 325 335 345 345 346 352 1 4 22 45 59 61 63 64 66 70 85 100 105 105 97 97 108 116 118 119 115 104
224 231 232 231 238 243 240 229 225 227 211 220 237 245 278 307 306 324 332 331 332 328 0 31 35 44 53 55 60 62 68 78 86 90 100 105 105 107 107 107 117 110 115
224 231 229 228 231 233 242 260 238 231 237 231 224 218 236 252 284 313 331 339 347 4 61 62 54 58 67 73 84 76 71 87 94 102 105 109 114 116 112 102 100 115 126
221 227 222 220 222 225 225 234 260 263 244 243 240 235 235 253 276 300 321 339 359 60 89 106 114 98 79 88 98 97 94 100 108 114 117 118 118 116 116 115 114 115 120
224 227 220 218 217 218 219 222 224 235 260 267 250 240 238 242 255 276 296 336 10 50 142 195 211 213 196 170 147 129 124 121 117 121 123 125 127 126 125 128 130 132 133
225 226 222 217 214 214 215 216 218 223 231 243 258 262 239 232 239 252 237 200 215 223 213 213 213 211 207 195 180 163 153 150 145 140 140 141 140 133 134 137 136 137 131
237 232 218 213 211 212 212 213 218 222 228 232 238 238 208 184 212 226 213 210 213 220 218 215 213 210 205 198 184 170 161 160 158 153 154 155 154 149 151 153 155 156 156
251 245 229 217 214 214 213 216 218 218 223 229 237 227 193 198 215 217 214 214 215 217 215 212 210 206 201 194 186 181 178 177 175 171 167 165 162 161 162 163 166 164 154
267 253 235 226 221 218 217 216 213 216 221 228 237 234 210 206 216 217 218 220 218 215 208 202 207 206 200 194 190 187 186 186 184 179 176 172 170 167 162 164 166 166 165
289 268 253 242 232 225 221 217 216 218 222 225 227 221 207 212 220 221 222 221 214 212 206 202 206 209 207 201 196 192 193 197 192 182 179 177 176 175 171 173 173 170 181
312 288 269 256 244 234 228 224 221 221 222 223 223 221 217 216 218 221 221 217 211 210 205 203 207 209 205 201 203 204 206 203 192 187 181 180 181 180 178 178 181 184 187
333 316 295 276 260 248 242 235 228 224 223 223 222 221 219 216 218 221 219 214 209 210 209 205 207 210 209 204 202 204 207 203 197 191 185 181 183 183 182 182 182 183 185
346 339 324 306 288 270 256 248 241 232 228 226 223 220 217 216 217 218 215 211 211 213 211 209 209 207 206 209 210 209 207 204 201 195 186 182 185 188 185 189 188 187 188
Height
1521 1518 1515 1511 1508 1505 1502 1498 1495 1492 1489 1485 1482 1479 1477 1475 1472 1470 1469 1468 1468 1468 1468 1469 1471 1473 1476 1479 1482 1485 1487 1491 1494 1497 1501 1505 1508 1512 1516 1520 1524 1528 1532
1520 1517 1514 1511 1508 1505 1502 1498 1495 1492 1488 1485 1482 1479 1476 1474 1472 1469 1467 1466 1466 1465 1465 1466 1467 1469 1471 1474 1476 1479 1482 1485 1489 1492 1495 1499 1503 1507 1511 1515 1519 1523 1527
1520 1517 1514 1511 1508 1505 1502 1498 1495 1492 1489 1485 1482 1479 1476 1474 1471 1469 1467 1465 1464 1464 1463 1464 1464 1466 1467 1470 1472 1474 1477 1480 1483 1486 1490 1494 1498 1502 1506 1511 1515 1519 1523
1519 1516 1513 1511 1508 1505 1502 1499 1495 1492 1489 1486 1482 1479 1477 1474 1471 1469 1467 1465 1464 1463 1462 1462 1462 1463 1465 1467 1468 1470 1473 1475 1478 1482 1486 1489 1493 1497 1502 1506 1510 1515 1519
1517 1515 1513 1510 1507 1504 1501 1498 1495 1492 1489 1486 1483 1480 1477 1474 1472 1469 1467 1465 1463 1462 1462 1461 1461 1462 1463 1465 1466 1467 1469 1471 1474 1478 1481 1484 1488 1493 1497 1502 1506 1511 1516
1516 1514 1512 1509 1507 1504 1501 1498 1495 1493 1490 1487 1483 1480 1477 1474 1472 1470 1467 1465 1463 1462 1462 1462 1462 1462 1463 1464 1465 1466 1467 1469 1472 1475 1477 1480 1484 1489 1494 1498 1503 1507 1512
1515 1513 1511 1508 1506 1503 1501 1498 1496 1493 1490 1487 1484 1481 1478 1475 1473 1470 1468 1466 1464 1463 1463 1462 1462 1462 1463 1463 1464 1464 1466 1467 1470 1473 1475 1477 1481 1485 1490 1496 1500 1504 1508
1514 1512 1510 1508 1506 1503 1501 1498 1496 1493 1490 1487 1484 1481 1479 1476 1473 1471 1469 1467 1465 1464 1463 1463 1463 1463 1463 1464 1464 1464 1465 1467 1469 1471 1473 1476 1480 1484 1489 1493 1497 1502 1507
1513 1511 1509 1507 1505 1503 1500 1498 1495 1493 1490 1487 1484 1481 1479 1476 1474 1471 1470 1468 1467 1465 1464 1464 1464 1464 1464 1464 1465 1465 1466 1467 1469 1471 1473 1475 1478 1482 1486 1491 1495 1500 1505
1512 1511 1509 1507 1505 1502 1500 1498 1495 1492 1489 1487 1484 1481 1479 1476 1474 1472 1470 1469 1468 1467 1466 1465 1465 1465 1465 1465 1465 1466 1467 1468 1469 1471 1473 1475 1478 1482 1486 1490 1493 1498 1502
1511 1510 1508 1506 1504 1502 1500 1497 1495 1492 1489 1486 1484 1481 1479 1477 1475 1473 1471 1470 1469 1468 1467 1466 1466 1466 1466 1466 1467 1467 1468 1469 1470 1472 1474 1476 1479 1482 1485 1489 1494 1498 1502
1510 1508 1507 1505 1503 1502 1499 1497 1494 1492 1489 1486 1484 1481 1479 1477 1475 1474 1472 1471 1470 1469 1468 1468 1467 1468 1467 1468 1468 1468 1469 1470 1471 1472 1475 1477 1480 1483 1486 1490 1493 1497 1502
1508 1507 1505 1504 1502 1501 1498 1496 1494 1491 1489 1486 1484 1481 1479 1477 1476 1474 1473 1472 1471 1470 1469 1469 1469 1469 1469 1470 1470 1470 1471 1471 1472 1473 1475 1478 1480 1483 1487 1490 1494 1497 1501
1506 1504 1503 1502 1500 1499 1497 1495 1493 1491 1489 1486 1484 1481 1479 1478 1476 1475 1474 1473 1472 1471 1471 1471 1471 1472 1472 1472 1472 1472 1473 1473 1474 1475 1476 1479 1481 1484 1487 1491 1494 1497 1501
1503 1502 1500 1499 1498 1496 1495 1493 1491 1490 1488 1486 1484 1481 1479 1478 1477 1475 1474 1474 1473 1473 1473 1473 1473 1474 1474 1474 1474 1475 1475 1476 1476 1477 1479 1480 1483 1486 1489 1492 1495 1498 1501
1499 1498 1497 1496 1495 1493 1492 1491 1489 1488 1486 1484 1483 1481 1479 1478 1476 1476 1475 1474 1474 1474 1474 1474 1474 1475 1476 1476 1477 1477 1478 1478 1479 1480 1481 1483 1485 1487 1490 1493 1496 1499 1502
1495 1494 1493 1492 1491 1490 1489 1488 1487 1486 1484 1483 1481 1480 1478 1477 1476 1475 1475 1474 1474 1474 1474 1475 1475 1476 1477 1477 1478 1479 1480 1481 1481 1483 1484 1485 1487 1489 1491 1494 1496 1499 1501
1489 1489 1488 1487 1487 1486 1485 1484 1483 1482 1481 1480 1479 1478 1477 1476 1475 1474 1474 1474 1474 1474 1474 1474 1475 1476 1477 1478 1479 1480 1481 1482 1483 1484 1486 1487 1489 1491 1493 1495 1497 1499 1501
1483 1483 1482 1482 1481 1481 1480 1479 1479 1478 1477 1477 1476 1476 1475 1474 1473 1472 1472 1472 1472 1472 1473 1473 1474 1475 1476 1478 1479 1480 1481 1482 1484 1485 1487 1488 1490 1492 1493 1495 1497 1499 1501
1475 1475 1475 1475 1475 1475 1474 1474 1473 1473 1473 1472 1472 1472 1472 1471 1470 1469 1469 1469 1469 1470 1470 1471 1472 1473 1475 1476 1477 1479 1480 1482 1483 1485 1486 1488 1490 1492 1493 1495 1497 1498 1500
1466 1467 1467 1467 1468 1468 1468 1467 1467 1467 1467 1467 1467 1468 1467 1467 1466 1466 1465 1465 1466 1466 1467 1468 1469 1470 1472 1473 1475 1477 1478 1480 1482 1483 1485 1487 1489 1490 1492 1494 1496 1497 1499
1458 1458 1458 1458 1459 1460 1460 1460 1460 1460 1460 1460 1461 1462 1462 1461 1461 1461 1461 1461 1461 1462 1463 1464 1465 1466 1468 1470 1472 1473 1475 1477 1479 1481 1483 1484 1486 1488 1490 1492 1493 1495 1496
1450 1449 1449 1450 1450 1451 1452 1452 1452 1453 1453 1453 1454 1455 1455 1455 1455 1456 1456 1456 1456 1457 1457 1458 1460 1461 1463 1465 1467 1469 1471 1473 1475 1477 1479 1481 1483 1485 1486 1488 1490 1491 1492
1444 1442 1441 1441 1441 1442 1443 1443 1444 1444 1445 1445 1446 1447 1447 1448 1449 1449 1450 1450 1451 1451 1452 1453 1454 1456 1458 1460 1462 1464 1466 1468 1470 1472 1474 1476 1478 1480 1482 1483 1485 1487 1488
1440 1436 1434 1433 1433 1433 1433 1434 1435 1435 1436 1436 1437 1438 1439 1440 1441 1442 1443 1444 1444 1445 1446 1447 1448 1450 1451 1453 1455 1458 1460 1462 1465 1467 1469 1471 1473 1475 1477 1478 1480 1482 1483
1436 1432 1429 1427 1425 1424 1424 1424 1425 1426 1426 1427 1428 1429 1430 1431 1432 1434 1435 1436 1437 1438 1439 1440 1441 1443 1445 1447 1449 1451 1453 1455 1458 1460 1462 1465 1467 1469 1471 1472 1474 1476 1477